Regional Weather Roundup
Issued by NWS

Home | Current Version | Previous Version | Text Only | Print | Product List | Glossary Off
Versions: 1 2 3 4 5 6 7 8 9 10 11 12 13 14 15 16 17 18 19 20 21 22 23 24 25 26 27 28 29 30 31 32 33 34 35 36 37 38 39 40 41 42 43 44 45 46 47 48 49 50

784
ASUS43 KMPX 230401
RWRMN
WEATHER ROUNDUP FOR MINNESOTA
NATIONAL WEATHER SERVICE TWIN CITIES/CHANHASSEN MN
1000 PM CST WED NOV 22 2017


NOTE: "FAIR" INDICATES FEW OR NO CLOUDS BELOW 12,000 FEET WITH NO
SIGNIFICANT WEATHER AND/OR OBSTRUCTIONS TO VISIBILITY. N/A MEANS
CURRENT SKY AND/OR WEATHER CONDITIONS ARE NOT AVAILABLE.

MNZ060>063-068>070-230500-
   Twin Cities Metro

CITY           SKY/WX    TMP DP  RH WIND       PRES   REMARKS
TWIN CITIES    CLOUDY    32  18  56 S7        29.98F WCI  26
ST PAUL        CLOUDY    32  19  58 SE8       30.00F WCI  25
CRYSTAL        CLOUDY    31  15  52 S6        29.97F WCI  25
BLAINE         CLOUDY    34  18  51 S6        29.97S WCI  29
LAKEVILLE        N/A     30  18  59 S6        29.98S WCI  24
EDEN PRAIRIE   CLOUDY    31  17  56 S7        29.97S WCI  24
SOUTH ST PAUL  CLOUDY    32  18  57 S5        29.99F WCI  27
LAKE ELMO      CLOUDY    32  19  59 S6        30.00F WCI  26
$$
MNZ001>005-007-008-013>017-022>024-027-028-230500-
   Northwest Minnesota

CITY           SKY/WX    TMP DP  RH WIND       PRES   REMARKS
BEMIDJI        CLOUDY    17  16  94 CALM      29.94R
HALLOCK        PTCLDY    19  18  93 W3        29.96S
ROSEAU         CLOUDY    19  16  86 CALM      29.94S
WARROAD        CLOUDY    12   9  85 CALM      29.95R
CROOKSTON      CLOUDY    27  21  80 CALM      29.97S
FOSSTON        CLOUDY    21  18  86 CALM      29.93F
DETROIT LAKES  CLOUDY    27  18  69 CALM      29.93S
MOORHEAD       CLOUDY    27  16  63 CALM      29.95R
PARK RAPIDS    CLOUDY    22  16  78 CALM      29.92S
MAHNOMEN       CLOUDY    25  17  71 CALM      29.94R
$$
MNZ006-009>011-018-025>026-230500-
   North Central Minnesota

CITY           SKY/WX    TMP DP  RH WIND       PRES   REMARKS
BAUDETTE       CLOUDY    18  15  88 CALM      29.93S
FLAG ISLAND    CLOUDY    21  18  86 SW5       29.93S WCI  15
INTL FALLS     CLOUDY    16  12  84 W3        29.93F
WASKISH        CLOUDY    21  18  86 S3        29.93F
BIG FORK       CLOUDY    19  16  86 S6        29.94S WCI  11
LONGVILLE      CLOUDY    19  18  93 CALM      29.94S
GRAND RAPIDS   CLOUDY    19  17  92 S3        29.97R
CRANE LAKE     CLOUDY    19  18  93 S6        29.96S WCI  11
ORR            CLOUDY    19  16  86 CALM      29.92R
COOK           CLOUDY    21  18  86 SW7       29.94S WCI  13
WALKER         FAIR      18  16  90 CALM      29.95R
$$
MNZ012-019>021-037-230500-
   Northeast Minnesota

CITY           SKY/WX    TMP DP  RH WIND       PRES   REMARKS
DULUTH         CLOUDY    20  18  92 SW9       29.94F WCI   9
ELY            CLOUDY    19  16  86 SW6       29.94R WCI  11
HIBBING        CLOUDY    19  17  92 S3        29.95R
EVELETH        CLOUDY    20  15  82 SW7       29.95F WCI  11
DULUTH HARBOR  CLOUDY    25  21  86 SW8       30.00F WCI  16
TWO HARBORS    CLOUDY    25  19  80 W5        29.96S WCI  19
SILVER BAY     CLOUDY    23  19  86 SW5       29.94F WCI  17
GRAND MARAIS     N/A     27  18  69 W10G18    29.97F WCI  17
G MARAIS ARPRT CLOUDY    18  10  73 S3        29.90F
$$
MNZ029>031-032-039>041-046>048-054>057-064-230500-
   West Central Minnesota

CITY           SKY/WX    TMP DP  RH WIND       PRES   REMARKS
FERGUS FALLS   CLOUDY    23  16  74 E3        29.95S
WHEATON        CLOUDY    23  18  80 S3        29.94S
MORRIS         CLOUDY    23  16  74 SE5       29.91S WCI  17
ALEXANDRIA     CLOUDY    24  16  71 SE3       29.92R
ELBOW LAKE     FAIR      24  17  75 SE6       29.92S HAZE    WCI  17
WADENA         CLOUDY    23  16  74 CALM      29.92F
GLENWOOD       CLOUDY    21  18  86 E3        29.92S
APPLETON       CLOUDY    21  16  79 CALM      29.92S
BENSON         CLOUDY    25  16  68 CALM      29.93S
ORTONVILLE     CLOUDY    25  18  74 CALM      29.91S
MADISON        CLOUDY    27  19  74 CALM      29.92F
WILLMAR        FAIR      27  19  74 SE5       29.93F WCI  21
$$
MNZ033>034-036-042>043-049>051-058-059-230500-
   Central Minnesota

CITY           SKY/WX    TMP DP  RH WIND       PRES   REMARKS
ST CLOUD       CLOUDY    28  17  63 E5        29.95F WCI  23
SAUK CENTRE    FAIR      24  16  72 E5        29.93R WCI  18
PAYNESVILLE    CLOUDY    24  19  81 E3        29.94S
AITKIN         CLOUDY    19  18  93 SE5       29.92F WCI  13
PINE RIVER     CLOUDY    19  16  86 CALM      29.96F
BRAINERD       CLOUDY    24  17  74 SE6       29.94F WCI  17
STAPLES        CLOUDY    25  16  68 CALM      29.92F
LONG PRAIRIE   FAIR      25  16  68 CALM      29.94R
LITTLE FALLS   CLOUDY    27  12  54 SE3       29.95F
LITCHFIELD     CLOUDY    27  19  74 CALM      29.94S
BUFFALO        CLOUDY    30  17  57 CALM      29.96F
MAPLE LAKE     CLOUDY    29  20  69 SE3       29.95F
HUTCHINSON     PTCLDY    26  19  73 SE5       29.95F WCI  20
$$
MNZ037-044-045-052-053-230500-
   East Central Minnesota

CITY           SKY/WX    TMP DP  RH WIND       PRES   REMARKS
PRINCETON      CLOUDY    30  18  59 CALM      29.97F
MORA           CLOUDY    25  21  86 CALM      30.00F
CAMBRIDGE      CLOUDY    30  18  59 CALM      29.98S
RUSH CITY      CLOUDY    25  21  86 CALM      30.00R
MOOSE LAKE     CLOUDY    23  19  86 CALM      29.96F
HINCKLEY       CLOUDY    25  23  93 E5        29.99S WCI  19
CLOQUET        CLOUDY    21  18  86 S7        29.95F WCI  13
MCGREGOR       CLOUDY    23  19  86 S6        29.95F WCI  16
$$
MNZ071>073-080-081-089-090-097-098-230500-
   Southwest Minnesota

CITY           SKY/WX    TMP DP  RH WIND       PRES   REMARKS
MONTEVIDEO     CLOUDY    27  18  69 CALM      29.92F
GRANITE FALLS  CLOUDY    28  18  65 CALM      29.94S
CANBY          CLOUDY    37  23  58 SW15      29.91S
MARSHALL       CLEAR     35  21  56 W15       29.91S WCI  25
REDWOOD FALLS  CLOUDY    27  15  61 S5        29.93S WCI  22
OLIVIA         CLOUDY    28  18  64 S5        29.92S WCI  23
PIPESTONE      CLOUDY    30  18  59 CALM      29.91F
WINDOM         CLOUDY    30  14  51 SW8       29.93F WCI  23
WORTHINGTON    CLEAR     31  19  61 SW14      29.93S WCI  21
JACKSON        CLEAR     32  18  55 SW13      29.94F WCI  22
SLAYTON        CLEAR     32  13  47 SW8       29.92F WCI  24
$$
MNZ065>067-074>077-082>085-091>093-230500-
   South Central Minnesota

CITY           SKY/WX    TMP DP  RH WIND       PRES   REMARKS
MANKATO        CLEAR     31  19  61 S8        29.96F WCI  23
NEW ULM        CLOUDY    28  16  59 CALM      29.94F
ST JAMES       CLEAR     30  18  59 S9        29.96S WCI  22
FAIRMONT       CLEAR     28  18  66 S7        29.97F WCI  21
GLENCOE        CLOUDY    29  19  65 SE3       29.95S
FARIBAULT      CLOUDY    30  18  59 S8        29.98S WCI  23
OWATONNA       CLOUDY    32  19  59 S8        29.98S WCI  25
WASECA         CLEAR     32  19  59 S10       29.98F WCI  24
ALBERT LEA     CLOUDY    34  16  47 S10G17    29.98F WCI  26
$$
MNZ078>079-086>088-094>096-230500-
   Southeast Minnesota

CITY           SKY/WX    TMP DP  RH WIND       PRES   REMARKS
ROCHESTER      CLOUDY    31  17  56 S15       30.00F WCI  20
RED WING       CLOUDY    32  14  47 SE6       30.00F WCI  26
STANTON        CLOUDY    33  19  56 S8        29.97F WCI  26
DODGE CENTER   CLOUDY    30  18  59 S12       29.99S WCI  21
WINONA         CLOUDY    34  19  55 SE6       30.06F WCI  29
AUSTIN         CLOUDY    32  18  55 S10       30.00F WCI  24
PRESTON        CLOUDY    30  16  56 S9        30.03F WCI  22
$$
ABBREVIATIONS USED IN REMARKS
   TC - TEMPERATURES IN CELSIUS
  WCI - WIND CHILL INDEX
   HX - HEAT INDEX
  VSB - VISIBILITY
$$




USA.gov is the U.S. government's official web portal to all federal, state and local government web resources and services.